Погода в Анюйске

Россия / Чукотский автономный округ     68°20′40″N   161°33′37″E
темп.,
°C
ветер,
м/с
пор.,
м/с
влажн.,
%
обл.,
%
осадки,
мм/ч
давл.,
гПа
погр.,
м
5 марта, пт
пт500:00−26зсз81396100 0.4 984269
03:00−27зюз4798100 0.2 983256
06:00−28ююз4698100 0.4 983186
09:00−28ю4798100 0.1 984168
12:00−23зюз5797100 0.4 984443
15:00−21сз4596100 0.4 984356
18:00−23сз2299100 0.7 98345
21:00−24св3598100 0.3 98383
6 марта, сб
сб600:00−25с3497100 0.4 98476
03:00−25ссз2299100 0.1 98625
06:00−25ссз12100100 0.3 98731
09:00−24сз5897100 0.1 988216
12:00−22сз6894100 0.2 989664
15:00−23сз6792100 0.3 990751
18:00−25сз4697100 0.4 990191
21:00−27зсз4498100 0.1 99156
7 марта, вс
вс700:00−29зсз339996 0.1 99220
03:00−29зюз2299100 0.1 99320
06:00−28юз2399100 0.1 99328
09:00−27ююз3398100 0.1 99559
12:00−25юз3594100 0.2 996410
15:00−24зюз3590100 0.1 996709
18:00−25юз2397100 0.2 99734
21:00−27юз3398100 0.1 99925
8 марта, пн
пн800:00−30зюз3310098 0.1 99919
03:00−32з2310099 0.0 100019
06:00−32зсз2399100 0.1 100020
09:00−32зсз3499100 0.1 100053
12:00−30зсз6996100 0.1 1000406
15:00−29зсз6994100 0.1 999495
18:00−29зсз51095100 0.1 999433
21:00−30з4797100 0.1 1000167
9 марта, вт
вт900:00−32зюз4698100 0.1 100081
03:00−30юз3598100 0.1 100092
06:00−29ююз4698100 0.3 1001111
09:00−28ююз4698100 0.2 1002144
12:00−24з5891100 0.4 10031017
15:00−22з6990100 0.1 10041098
18:00−23з4994100 0.3 1005363
21:00−25з2299100 0.1 100721